Weather History for KP58 - October, 2012

Change the Weather History Date:

Thursday, October 4, 2012

  Actual Average (KMBS) Record (KMBS)
Temperature  
Mean Temperature 65 °F 54 °F  
Max Temperature 73 °F 64 °F - ()
Min Temperature 57 °F 44 °F - ()
Degree Days  
Heating Degree Days 0    
Month to date heating degree days  
Since 1 July heating degree days  
Cooling Degree Days 0    
Month to date cooling degree days  
Year to date cooling degree days  
Growing Degree Days 15 (Base 50)    
Moisture  
Dew Point 54 °F    
Average Humidity 73    
Maximum Humidity 90    
Minimum Humidity 49    
Precipitation  
Precipitation 0.15 in 0.10 in - ()
Month to date precipitation 0.40  
Year to date precipitation 24.75  
Snow  
Snow 0.00 in - - ()
Month to date snowfall  
Since 1 July snowfall  
Since 1 September snowfall  
Snow Depth -    
Sea Level Pressure  
Sea Level Pressure 29.97 in    
Wind  
Wind Speed 5 mph (WSW)    
Max Wind Speed 14 mph    
Max Gust Speed 25 mph    
T = Trace of Precipitation, MM = Missing Value Source: NWS Daily Summary

Daily Weather History Graph

Daily Weather History Graph

Search for Another Location

Airport or City:

Trip Planner

Search our weather history database for the weather conditions in past years. The results will help you decide how hot, cold, wet, or windy it might be!

Date:

Astronomy

Oct. 04, 2012 Rise Set
Actual Time 7:32 AM EDT 7:05 PM EDT
Civil Twilight 7:04 AM EDT 7:34 PM EDT
Nautical Twilight 6:30 AM EDT 8:07 PM EDT
Astronomical Twilight 5:56 AM EDT 8:41 PM EDT
Moon 9:30 PM EDT (10/4) 11:58 AM EDT (10/4)
Length of Visible Light 12h 30m
Length of Day
11h 32m
Waning Gibbous, 82% of the Moon is Illuminated
Oct 4
Waning Gibbous
Oct 8
Last Quarter
Oct 15
New
Oct 21
First Quarter
Oct 29
Full

Hourly Weather History & Observations

Time (EDT) Temp. Dew Point Humidity Pressure Visibility Wind Dir Wind Speed Gust Speed Precip Events Conditions
12:51 AM 60.1 °F 54.0 °F 80% 30.02 in - Variable 4.6 mph - N/A   Unknown
1:51 AM 60.1 °F 54.0 °F 80% 30.02 in - Variable 4.6 mph - N/A   Unknown
2:51 AM 60.1 °F 54.0 °F 80% 30.01 in - Variable 3.5 mph - N/A   Unknown
3:51 AM 60.1 °F 54.0 °F 80% 30.00 in - Calm Calm - N/A   Unknown
4:51 AM 61.0 °F 53.1 °F 75% 29.99 in - Variable 4.6 mph - N/A   Unknown
5:51 AM 60.1 °F 53.1 °F 78% 29.98 in - SW 5.8 mph - N/A   Unknown
6:51 AM 59.0 °F 55.0 °F 87% 29.98 in - Variable 5.8 mph - N/A   Unknown
7:51 AM 59.0 °F 55.0 °F 87% 29.98 in - Variable 6.9 mph - N/A   Unknown
8:51 AM 57.9 °F 55.0 °F 90% 29.98 in - Variable 6.9 mph - 0.07 in   Unknown
9:51 AM 59.0 °F 55.9 °F 90% 29.98 in - SW 8.1 mph - 0.02 in   Unknown
10:51 AM 60.1 °F 55.9 °F 86% 29.98 in - Variable 6.9 mph - N/A   Unknown
11:51 AM 63.0 °F 55.9 °F 78% 29.98 in - WSW 10.4 mph 25.3 mph 0.01 in   Unknown
12:51 PM 61.0 °F 57.0 °F 87% 29.99 in - WSW 9.2 mph 20.7 mph N/A   Unknown
1:51 PM 66.0 °F 55.0 °F 68% 29.97 in - WSW 13.8 mph 20.7 mph N/A   Unknown
2:51 PM 69.1 °F 55.9 °F 63% 29.96 in - WSW 9.2 mph 21.9 mph N/A   Unknown
3:51 PM 71.1 °F 54.0 °F 55% 29.95 in - WSW 9.2 mph 21.9 mph N/A   Unknown
4:51 PM 73.0 °F 54.0 °F 51% 29.94 in - WSW 9.2 mph 16.1 mph N/A   Unknown
5:51 PM 73.0 °F 53.1 °F 49% 29.94 in - WSW 8.1 mph - N/A   Unknown
6:51 PM 71.1 °F 52.0 °F 51% 29.94 in - Calm Calm - N/A   Unknown
7:51 PM 68.0 °F 52.0 °F 56% 29.93 in - Calm Calm - N/A   Unknown
8:51 PM 68.0 °F 50.0 °F 52% 29.94 in - Variable 4.6 mph - N/A   Unknown
9:51 PM 62.1 °F 55.0 °F 78% 29.92 in - Calm Calm - 0.05 in   Unknown
10:51 PM 63.0 °F 55.0 °F 75% 29.91 in - Calm Calm - N/A   Unknown
11:51 PM 64.0 °F 54.0 °F 70% 29.91 in - Variable 6.9 mph - N/A   Unknown